CW9803 Weather Reports


time (UTC)temp
C
wind
direction
speed
KPH
gust
KPH
rain 1hr
cm
rain 24hr
cm
rain mn
cm
humidity
%
barometer
mb
20260902021652 23 227 8.0 9.7 0.00 0.00 0.00 37 1003.4
20260902021146 23 244 9.7 12.9 0.00 0.00 0.00 37 1003.7
20260902020643 24 274 11.3 14.5 0.00 0.00 0.00 37 1003.4
20260902020138 25 210 8.0 9.7 0.00 0.00 0.00 35 1003.3
20260902015633 25 221 3.2 3.2 0.00 0.00 0.00 33 1003.4
20260902015130 25 258 11.3 12.9 0.00 0.00 0.00 33 1003.3
20260902014625 25 184 3.2 3.2 0.00 0.00 0.00 32 1003.3
20260902014121 25 149 0.0 0.0 0.00 0.00 0.00 32 1003.3
20260902013620 25 131 0.0 0.0 0.00 0.00 0.00 32 1003.4
20260902013116 25 131 0.0 0.0 0.00 0.00 0.00 31 1003.4
20260902012611 26 158 1.6 3.2 0.00 0.00 0.00 31 1003.4
20260902012106 26 158 0.0 1.6 0.00 0.00 0.00 31 1003.7
20260902011602 26 146 6.4 6.4 0.00 0.00 0.00 30 1003.5
20260902011101 26 173 4.8 4.8 0.00 0.00 0.00 30 1003.7
20260902010600 26 163 4.8 6.4 0.00 0.00 0.00 30 1003.3
20260902010057 26 165 3.2 3.2 0.00 0.00 0.00 30 1003.8
20260902005554 26 158 8.0 12.9 0.00 0.00 0.00 30 1003.5
20260902005051 26 176 4.8 9.7 0.00 0.00 0.00 29 1003.4
20260902004549 26 186 8.0 11.3 0.00 0.00 0.00 29 1003.2
20260902004045 27 177 24.1 25.7 0.00 0.00 0.00 29 1003.4
20260902003540 27 169 8.0 11.3 0.00 0.00 0.00 30 1003.4
20260902003036 27 172 3.2 4.8 0.00 0.00 0.00 30 1003.5
20260902002531 27 148 11.3 12.9 0.00 0.00 0.00 30 1003.3
20260902002020 27 134 9.7 16.1 0.00 0.00 0.00 30 1003.5
20260902001515 27 185 17.7 22.5 0.00 0.00 0.00 30 1003.5
20260902001010 27 198 12.9 14.5 0.00 0.00 0.00 30 1003.4
20260902000505 27 169 16.1 20.9 0.00 0.00 0.00 30 1003.9
20260902000000 27 168 12.9 16.1 0.00 0.00 0.00 29 1003.8
20260901235454 27 163 12.9 16.1 0.00 0.00 0.00 30 1003.9
20260901234950 27 140 14.5 27.4 0.00 0.00 0.00 30 1003.9
20260901234444 27 177 8.0 9.7 0.00 0.00 0.00 30 1004.0
20260901233939 27 179 12.9 20.9 0.00 0.00 0.00 30 1004.0
20260901233434 27 147 4.8 4.8 0.00 0.00 0.00 30 1004.1
20260901232930 27 163 12.9 16.1 0.00 0.00 0.00 30 1004.2
20260901232430 27 209 9.7 12.9 0.00 0.00 0.00 30 1004.3
20260901231925 27 192 3.2 4.8 0.00 0.00 0.00 31 1004.0
20260901231422 27 186 9.7 11.3 0.00 0.00 0.00 31 1004.3
20260901230918 27 190 16.1 24.1 0.00 0.00 0.00 31 1004.2
20260901230417 27 151 12.9 22.5 0.00 0.00 0.00 33 1004.3
20260901225913 27 145 6.4 9.7 0.00 0.00 0.00 33 1004.4
20260901225407 27 194 17.7 24.1 0.00 0.00 0.00 34 1004.5
20260901224902 27 182 8.0 11.3 0.00 0.00 0.00 34 1004.5
20260901224358 28 170 6.4 9.7 0.00 0.00 0.00 34 1004.9
20260901223854 27 191 4.8 4.8 0.00 0.00 0.00 36 1004.8
20260901223349 27 148 1.6 3.2 0.00 0.00 0.00 36 1005.1
20260901222845 26 175 3.2 4.8 0.00 0.00 0.00 37 1005.1
20260901222342 26 142 1.6 1.6 0.00 0.00 0.00 37 1005.2
20260901221837 27 168 11.3 14.5 0.00 0.00 0.00 37 1005.3
20260901221332 26 155 8.0 11.3 0.00 0.00 0.00 37 1005.4
20260901220832 25 157 3.2 3.2 0.00 0.00 0.00 39 1005.5
20260901220331 25 166 3.2 4.8 0.00 0.00 0.00 39 1005.3
20260901215830 25 167 6.4 6.4 0.00 0.00 0.00 39 1005.5
20260901215329 25 146 4.8 6.4 0.00 0.00 0.00 38 1005.6
20260901214828 25 148 9.7 12.9 0.00 0.00 0.00 39 1005.6
20260901214327 25 156 3.2 6.4 0.00 0.00 0.00 39 1005.6
20260901213822 25 177 6.4 12.9 0.00 0.00 0.00 38 1005.6
20260901213322 25 209 12.9 17.7 0.00 0.00 0.00 40 1005.7
20260901212816 25 176 6.4 11.3 0.00 0.00 0.00 40 1005.8
20260901212312 25 181 4.8 6.4 0.00 0.00 0.00 39 1005.8
20260901211808 25 219 4.8 4.8 0.00 0.00 0.00 39 1005.7
20260901211304 25 150 3.2 4.8 0.00 0.00 0.00 38 1006.0
20260901210759 25 150 3.2 4.8 0.00 0.00 0.00 38 1006.0
20260901210255 25 181 6.4 11.3 0.00 0.00 0.00 38 1005.9
20260901205751 25 188 3.2 4.8 0.00 0.00 0.00 38 1006.1
20260901205250 25 154 6.4 11.3 0.00 0.00 0.00 38 1006.0
20260901204745 25 140 1.6 1.6 0.00 0.00 0.00 37 1006.1
20260901204236 26 152 1.6 3.2 0.00 0.00 0.00 37 1006.4
20260901203731 26 175 6.4 6.4 0.00 0.00 0.00 37 1006.4
20260901203231 26 149 0.0 0.0 0.00 0.00 0.00 37 1006.4
20260901202730 26 143 4.8 4.8 0.00 0.00 0.00 38 1006.5
20260901202226 26 181 4.8 4.8 0.00 0.00 0.00 36 1006.4
20260901201721 26 136 1.6 1.6 0.00 0.00 0.00 37 1006.4
20260901201220 26 165 8.0 11.3 0.00 0.00 0.00 35 1006.5
20260901200714 26 125 4.8 4.8 0.00 0.00 0.00 37 1006.5
20260901200210 25 188 4.8 4.8 0.00 0.00 0.00 38 1006.5
20260901195707 25 178 4.8 6.4 0.00 0.00 0.00 39 1006.6
20260901195201 25 144 1.6 3.2 0.00 0.00 0.00 40 1006.8
20260901194658 24 159 6.4 6.4 0.00 0.00 0.00 40 1006.6
20260901194147 23 146 0.0 1.6 0.00 0.00 0.00 42 1006.8
20260901193642 23 139 6.4 6.4 0.00 0.00 0.00 41 1006.8
20260901193137 23 189 11.3 12.9 0.00 0.00 0.00 42 1007.0
20260901192631 23 145 6.4 9.7 0.00 0.00 0.00 42 1007.2
20260901192126 23 214 4.8 9.7 0.00 0.00 0.00 43 1007.3
20260901191623 22 153 3.2 6.4 0.00 0.00 0.00 44 1007.4
20260901191119 22 196 3.2 4.8 0.00 0.00 0.00 44 1007.7
20260901190614 22 164 0.0 0.0 0.00 0.00 0.00 44 1007.7
20260901190114 22 147 4.8 6.4 0.00 0.00 0.00 44 1007.5
20260901185612 22 133 6.4 11.3 0.00 0.00 0.00 43 1007.4
20260901185111 22 147 1.6 3.2 0.00 0.00 0.00 43 1007.5
20260901184606 22 179 3.2 4.8 0.00 0.00 0.00 42 1007.5
20260901184101 22 129 4.8 9.7 0.00 0.00 0.00 42 1007.9
20260901183556 22 156 6.4 11.3 0.00 0.00 0.00 41 1008.0
20260901183052 22 190 14.5 24.1 0.00 0.00 0.00 41 1007.8
20260901182548 19 163 4.8 6.4 0.00 0.00 0.00 44 1007.9
20260901182048 18 122 0.0 1.6 0.00 0.00 0.00 42 1008.0
20260901181547 18 144 0.0 0.0 0.00 0.00 0.00 42 1007.8
20260901181046 18 151 0.0 0.0 0.00 0.00 0.00 43 1008.0
20260901180545 18 141 0.0 0.0 0.00 0.00 0.00 44 1007.7
20260901180040 17 121 0.0 0.0 0.00 0.00 0.00 42 1007.3
20260901175539 17 124 0.0 0.0 0.00 0.00 0.00 42 1007.4
20260901175034 17 96 0.0 1.6 0.00 0.00 0.00 42 1007.3
20260901174530 17 141 1.6 1.6 0.00 0.00 0.00 42 1007.4
20260901174026 17 261 6.4 6.4 0.00 0.00 0.00 43 1007.2
20260901173526 17 164 0.0 1.6 0.00 0.00 0.00 43 1007.0
20260901173022 17 91 0.0 1.6 0.00 0.00 0.00 46 1006.9
20260901172517 17 98 1.6 1.6 0.00 0.00 0.00 46 1007.3
20260901172015 17 74 4.8 4.8 0.00 0.00 0.00 42 1007.1
20260901171515 17 139 0.0 0.0 0.00 0.00 0.00 42 1007.0
20260901171014 16 135 0.0 0.0 0.00 0.00 0.00 43 1007.2
20260901170508 16 143 0.0 0.0 0.00 0.00 0.00 43 1007.3
20260901170009 16 203 3.2 3.2 0.00 0.00 0.00 44 1007.1
20260901165503 16 116 1.6 1.6 0.00 0.00 0.00 41 1006.6
20260901164958 16 134 0.0 0.0 0.00 0.00 0.00 43 1006.6
20260901164454 16 130 0.0 0.0 0.00 0.00 0.00 44 1006.6
20260901163948 16 54 3.2 3.2 0.00 0.00 0.00 44 1006.6
20260901163444 16 123 0.0 0.0 0.00 0.00 0.00 46 1006.8
20260901162942 16 145 0.0 0.0 0.00 0.00 0.00 46 1007.0
20260901162438 15 139 0.0 0.0 0.00 0.00 0.00 46 1007.0
20260901161931 15 88 1.6 1.6 0.00 0.00 0.00 48 1007.3
20260901161431 15 70 3.2 3.2 0.00 0.00 0.00 47 1007.0
20260901160921 15 93 1.6 1.6 0.00 0.00 0.00 47 1007.2
20260901160416 14 42 1.6 3.2 0.00 0.00 0.00 47 1007.5
20260901155915 14 105 1.6 1.6 0.00 0.00 0.00 47 1007.4
20260901155410 14 242 3.2 4.8 0.00 0.00 0.00 49 1007.3
20260901154907 14 124 0.0 1.6 0.00 0.00 0.00 49 1007.5
20260901154406 13 144 0.0 0.0 0.00 0.00 0.00 51 1007.5
20260901153901 12 122 0.0 0.0 0.00 0.00 0.00 52 1007.8
20260901153400 12 163 0.0 0.0 0.00 0.00 0.00 54 1007.5
20260901152859 12 115 0.0 0.0 0.00 0.00 0.00 56 1007.4
20260901152354 11 194 1.6 1.6 0.00 0.00 0.00 57 1007.5
20260901151844 11 165 1.6 1.6 0.00 0.00 0.00 56 1007.3
20260901151343 12 148 1.6 3.2 0.00 0.00 0.00 56 1007.0
20260901150843 12 144 1.6 1.6 0.00 0.00 0.00 54 1007.2
20260901150340 11 140 1.6 1.6 0.00 0.00 0.00 56 1007.3
20260901145838 11 137 0.0 0.0 0.00 0.00 0.00 54 1007.0
20260901145333 11 137 0.0 0.0 0.00 0.00 0.00 56 1006.7
20260901144828 10 145 0.0 0.0 0.00 0.00 0.00 61 1006.7
20260901144323 10 136 0.0 0.0 0.00 0.00 0.00 61 1006.8
20260901143819 10 112 1.6 1.6 0.00 0.00 0.00 63 1006.8
20260901143316 10 134 0.0 0.0 0.00 0.00 0.00 63 1006.6
20260901142812 10 142 0.0 0.0 0.00 0.00 0.00 62 1006.6
20260901142310 10 122 0.0 1.6 0.00 0.00 0.00 61 1006.5
20260901141806 10 128 0.0 0.0 0.00 0.00 0.00 59 1006.0
20260901141301 10 122 0.0 0.0 0.00 0.00 0.00 60 1006.2
20260901140759 9 127 0.0 0.0 0.00 0.00 0.00 61 1006.4
20260901140258 9 126 0.0 0.0 0.00 0.00 0.00 61 1006.2
20260901135753 9 114 0.0 0.0 0.00 0.00 0.00 61 1006.0
20260901135253 9 140 0.0 0.0 0.00 0.00 0.00 62 1006.2
20260901134749 9 191 3.2 3.2 0.00 0.00 0.00 62 1006.4
20260901134248 8 172 0.0 1.6 0.00 0.00 0.00 64 1006.4
20260901133743 8 126 0.0 0.0 0.00 0.00 0.00 64 1006.4
20260901133242 8 124 0.0 0.0 0.00 0.00 0.00 65 1006.2
20260901132740 8 130 0.0 0.0 0.00 0.00 0.00 65 1006.4
20260901132236 8 138 0.0 0.0 0.00 0.00 0.00 65 1006.2
20260901131730 8 132 0.0 0.0 0.00 0.00 0.00 66 1006.4
20260901131230 8 108 1.6 1.6 0.00 0.00 0.00 66 1006.5
20260901130725 8 122 0.0 0.0 0.00 0.00 0.00 66 1006.2
20260901130224 8 105 1.6 3.2 0.00 0.00 0.00 65 1006.2
20260901125722 8 116 0.0 0.0 0.00 0.00 0.00 66 1006.5
20260901125218 8 121 0.0 0.0 0.00 0.00 0.00 66 1006.4
20260901124712 8 160 0.0 0.0 0.00 0.00 0.00 66 1006.4
20260901124206 8 160 0.0 0.0 0.00 0.00 0.00 66 1006.5
20260901123701 8 160 0.0 0.0 0.00 0.00 0.00 67 1006.4
20260901123155 8 160 0.0 0.0 0.00 0.00 0.00 67 1006.5
20260901122653 8 161 0.0 0.0 0.00 0.00 0.00 67 1006.4
20260901122148 7 163 0.0 1.6 0.00 0.00 0.00 68 1006.4
20260901121643 7 154 0.0 0.0 0.00 0.00 0.00 67 1006.6
20260901121138 7 153 0.0 1.6 0.00 0.00 0.00 68 1006.5
20260901120633 8 154 1.6 1.6 0.00 0.00 0.00 68 1006.2
20260901120128 8 154 1.6 1.6 0.00 0.00 0.00 69 1006.1
20260901115623 8 153 1.6 1.6 0.00 0.00 0.00 69 1006.1
20260901115119 8 119 0.0 0.0 0.00 0.00 0.00 68 1006.5
20260901114615 8 119 0.0 0.0 0.00 0.00 0.00 66 1006.4
20260901114109 8 117 0.0 0.0 0.00 0.00 0.00 64 1006.5
20260901113607 8 131 0.0 0.0 0.00 0.00 0.00 63 1006.5
20260901113058 8 140 0.0 1.6 0.00 0.00 0.00 62 1006.4
20260901112557 8 132 0.0 0.0 0.00 0.00 0.00 62 1006.5
20260901112052 8 145 0.0 0.0 0.00 0.00 0.00 61 1006.5
20260901111550 8 135 0.0 1.6 0.00 0.00 0.00 60 1006.6
20260901111049 8 135 0.0 0.0 0.00 0.00 0.00 59 1006.5
20260901110545 8 132 0.0 0.0 0.00 0.00 0.00 61 1006.5
20260901110040 8 105 0.0 1.6 0.00 0.00 0.00 60 1006.5
20260901105537 8 124 0.0 0.0 0.00 0.00 0.00 60 1006.8
20260901105030 8 125 0.0 0.0 0.00 0.00 0.00 60 1006.7
20260901104527 8 125 0.0 0.0 0.00 0.00 0.00 60 1006.5
20260901104022 8 136 0.0 0.0 0.00 0.00 0.00 61 1006.8
20260901103522 8 144 0.0 0.0 0.00 0.00 0.00 61 1006.9
20260901103017 8 147 0.0 0.0 0.00 0.00 0.00 61 1007.0
20260901102512 8 117 0.0 0.0 0.00 0.00 0.00 62 1006.9
20260901102006 8 116 0.0 0.0 0.00 0.00 0.00 63 1006.9
20260901101501 8 115 0.0 0.0 0.00 0.00 0.00 62 1007.1
20260901100956 8 115 0.0 0.0 0.00 0.00 0.00 62 1006.9
20260901100451 8 115 0.0 0.0 0.00 0.00 0.00 62 1007.0
20260901095949 8 116 0.0 0.0 0.00 0.00 0.00 63 1006.8
20260901095449 8 115 0.0 0.0 0.00 0.00 0.00 66 1007.0
20260901094941 8 115 0.0 0.0 0.00 0.00 0.00 66 1006.8
20260901094441 8 116 0.0 0.0 0.00 0.00 0.00 66 1007.1
20260901093935 8 116 0.0 0.0 0.00 0.00 0.00 66 1007.0
20260901093430 8 116 0.0 0.0 0.00 0.00 0.00 64 1006.9
20260901092925 8 115 0.0 0.0 0.00 0.00 0.00 62 1006.9
20260901092421 8 115 0.0 0.0 0.00 0.00 0.00 61 1007.2
20260901091917 8 115 0.0 0.0 0.00 0.00 0.00 59 1007.2
20260901091416 9 115 0.0 0.0 0.00 0.00 0.00 57 1007.1
20260901090912 9 117 0.0 0.0 0.00 0.00 0.00 59 1007.1
20260901090411 9 116 0.0 0.0 0.00 0.00 0.00 57 1006.9
20260901085907 9 116 0.0 0.0 0.00 0.00 0.00 57 1007.0
20260901085403 9 115 0.0 0.0 0.00 0.00 0.00 56 1006.8
20260901084859 10 130 0.0 0.0 0.00 0.00 0.00 56 1006.9
20260901084354 10 130 0.0 0.0 0.00 0.00 0.00 57 1007.2
20260901083849 10 132 0.0 0.0 0.00 0.00 0.00 57 1007.1
20260901083344 10 132 0.0 0.0 0.00 0.00 0.00 59 1007.2
20260901082842 10 132 0.0 0.0 0.00 0.00 0.00 59 1007.1
20260901082338 10 132 0.0 0.0 0.00 0.00 0.00 56 1007.2
20260901081833 10 132 0.0 0.0 0.00 0.00 0.00 57 1007.0
20260901081328 10 130 0.0 0.0 0.00 0.00 0.00 57 1007.2
20260901080828 10 131 0.0 0.0 0.00 0.00 0.00 57 1007.2
20260901080322 10 131 0.0 0.0 0.00 0.00 0.00 55 1007.4
20260901075816 10 129 0.0 0.0 0.00 0.00 0.00 54 1007.1
20260901075311 11 126 0.0 0.0 0.00 0.00 0.00 55 1007.3
20260901074807 11 127 0.0 0.0 0.00 0.00 0.00 53 1007.3
20260901074301 11 133 0.0 0.0 0.00 0.00 0.00 52 1007.1
20260901073757 11 135 0.0 0.0 0.00 0.00 0.00 54 1007.2
20260901073252 11 136 0.0 0.0 0.00 0.00 0.00 54 1007.3
20260901072748 11 137 0.0 0.0 0.00 0.00 0.00 54 1007.1
20260901072242 11 136 0.0 0.0 0.00 0.00 0.00 54 1007.1
20260901071736 11 150 0.0 0.0 0.00 0.00 0.00 54 1007.1
20260901071231 11 151 0.0 0.0 0.00 0.00 0.00 56 1007.1
20260901070730 11 140 0.0 0.0 0.00 0.00 0.00 56 1007.2
20260901070225 11 140 0.0 0.0 0.00 0.00 0.00 56 1007.2
20260901065725 11 126 0.0 0.0 0.00 0.00 0.00 51 1007.2
20260901065220 11 123 0.0 0.0 0.00 0.00 0.00 50 1007.0
20260901064716 11 144 0.0 0.0 0.00 0.00 0.00 52 1007.2
20260901064212 11 129 0.0 0.0 0.00 0.00 0.00 51 1007.2
20260901063709 12 124 0.0 0.0 0.00 0.00 0.00 51 1007.3
20260901063205 12 124 0.0 0.0 0.00 0.00 0.00 52 1007.2
20260901062700 12 124 0.0 0.0 0.00 0.00 0.00 52 1007.2
20260901062156 12 152 1.6 1.6 0.00 0.00 0.00 53 1007.1
20260901061652 12 140 0.0 0.0 0.00 0.00 0.00 55 1007.2
20260901061152 12 147 0.0 0.0 0.00 0.00 0.00 54 1007.4
20260901060647 12 131 0.0 0.0 0.00 0.00 0.00 52 1007.3
20260901060142 12 109 0.0 1.6 0.00 0.00 0.00 51 1007.5
20260901055638 12 151 0.0 0.0 0.00 0.00 0.00 52 1007.4
20260901055134 13 154 0.0 0.0 0.00 0.00 0.00 50 1007.4
20260901054631 13 139 0.0 0.0 0.00 0.00 0.00 50 1007.4
20260901054127 13 148 1.6 1.6 0.00 0.00 0.00 49 1007.3
20260901053623 13 128 0.0 0.0 0.00 0.00 0.00 49 1007.4
20260901053118 13 138 0.0 0.0 0.00 0.00 0.00 47 1007.2
20260901052618 13 141 0.0 0.0 0.00 0.00 0.00 47 1007.3
20260901052114 13 151 0.0 0.0 0.00 0.00 0.00 48 1007.7
20260901051613 14 149 0.0 0.0 0.00 0.00 0.00 49 1007.5
20260901051112 14 133 0.0 0.0 0.00 0.00 0.00 48 1007.4
20260901050608 14 147 1.6 1.6 0.00 0.00 0.00 48 1007.4
20260901045557 15 156 0.0 0.0 0.00 0.00 0.00 40 1007.4
20260901045052 15 150 0.0 0.0 0.00 0.00 0.00 39 1007.4
20260901044548 15 127 0.0 0.0 0.00 0.00 0.00 39 1007.5
20260901044044 16 124 0.0 0.0 0.00 0.00 0.00 38 1007.5
20260901043539 16 118 0.0 0.0 0.00 0.00 0.00 37 1007.5
20260901043035 16 169 1.6 1.6 0.00 0.00 0.00 37 1007.4
20260901042534 16 105 1.6 1.6 0.00 0.00 0.00 38 1007.7
20260901042029 16 175 1.6 1.6 0.00 0.00 0.00 38 1007.5
20260901041525 16 148 0.0 0.0 0.00 0.00 0.00 38 1007.8
20260901041019 17 128 0.0 0.0 0.00 0.00 0.00 38 1007.8
20260901040513 17 117 0.0 0.0 0.00 0.00 0.00 36 1007.8
20260901040008 17 123 0.0 0.0 0.00 0.00 0.00 35 1007.3
20260901035506 17 124 0.0 0.0 0.00 0.00 0.00 35 1007.8
20260901035005 17 113 1.6 1.6 0.00 0.00 0.00 34 1007.8
20260901034504 17 171 1.6 1.6 0.00 0.00 0.00 34 1007.5
20260901033959 17 158 3.2 3.2 0.00 0.00 0.00 33 1007.8
20260901033458 17 33 6.4 6.4 0.00 0.00 0.00 34 1007.5
20260901032957 18 114 0.0 0.0 0.00 0.00 0.00 34 1007.5
20260901032452 18 105 0.0 0.0 0.00 0.00 0.00 34 1007.2
20260901031947 18 143 0.0 0.0 0.00 0.00 0.00 34 1007.3
20260901031442 18 143 0.0 0.0 0.00 0.00 0.00 36 1007.1
20260901030941 19 143 0.0 0.0 0.00 0.00 0.00 33 1007.1
20260901030437 20 141 0.0 0.0 0.00 0.00 0.00 33 1007.0
20260901025936 20 141 0.0 0.0 0.00 0.00 0.00 32 1007.1
20260901025432 20 141 0.0 0.0 0.00 0.00 0.00 32 1006.9
20260901024931 20 141 0.0 0.0 0.00 0.00 0.00 31 1007.0
20260901024426 21 141 0.0 0.0 0.00 0.00 0.00 29 1006.8
20260901023924 21 147 0.0 0.0 0.00 0.00 0.00 28 1006.8
20260901023419 21 128 0.0 0.0 0.00 0.00 0.00 28 1006.9
20260901022915 21 116 0.0 0.0 0.00 0.00 0.00 28 1006.8
20260901022410 22 122 0.0 0.0 0.00 0.00 0.00 27 1006.8